{"data":{"norad_id":37868,"epoch":"2026-05-23T13:32:11.105952Z","epoch_age_seconds":199053,"freshness":"STALE","line1":"1 37868U 11064B   26143.56401743 -.00000023  00000+0  00000+0 0  9994","line2":"2 37868  65.2635  73.7813 0020437 242.6206 292.2679  2.13102783113232","mean_motion":2.13102783,"eccentricity":0.0020437,"inclination_deg":65.2635,"raan_deg":73.7813,"arg_perigee_deg":242.6206,"mean_anomaly_deg":292.2679,"bstar":0,"rev_number":11323,"period_min":675.73026486472,"perigee_km":19077.694323194,"apogee_km":19181.955566848,"semimajor_km":25507.961945021,"source":"CELESTRAK","updated_at":"2026-05-25T13:38:23.892182Z"}}